Time,TemperatureF,DewpointF,PressureIn,WindDirection,WindDirectionDegrees,WindSpeedMPH,WindSpeedGustMPH,Humidity,HourlyPrecipIn,Conditions,Clouds,dailyrainin,SolarRadiationWatts/m^2,SoftwareType,DateUTC
2013-05-01 16:45:00,65.2,54.0,30.04,SW,233,6.0,6.0,67,0.00,,,0.00,633,Wunderground v.1.15,2013-05-01 23:45:00,
2013-05-01 16:50:00,65.7,54.4,30.04,WSW,251,5.0,6.0,67,0.00,,,0.00,619,Wunderground v.1.15,2013-05-01 23:50:00,
2013-05-01 16:55:00,65.5,55.1,30.04,SW,218,5.0,6.0,69,0.00,,,0.00,603,Wunderground v.1.15,2013-05-01 23:55:00,
2013-05-01 17:00:00,64.7,54.7,30.04,SW,218,6.0,6.0,70,0.00,,,0.00,585,Wunderground v.1.15,2013-05-02 00:00:00,
2013-05-01 17:05:00,64.4,54.8,30.04,SW,218,6.0,10.0,71,0.00,,,0.00,571,Wunderground v.1.15,2013-05-02 00:05:00,
2013-05-01 17:10:00,63.6,54.4,30.04,SW,218,7.0,7.0,72,0.00,,,0.00,554,Wunderground v.1.15,2013-05-02 00:10:00,
2013-05-01 17:15:00,63.4,54.6,30.04,SSW,213,7.0,8.0,73,0.00,,,0.00,538,Wunderground v.1.15,2013-05-02 00:15:00,
2013-05-01 17:20:00,63.3,54.9,30.04,SSW,213,7.0,7.0,74,0.00,,,0.00,520,Wunderground v.1.15,2013-05-02 00:20:00,
2013-05-01 17:25:00,63.5,55.1,30.04,SW,233,7.0,7.0,74,0.00,,,0.00,503,Wunderground v.1.15,2013-05-02 00:25:00,
2013-05-01 17:30:00,63.1,54.3,30.04,SW,225,6.0,6.0,73,0.00,,,0.00,489,Wunderground v.1.15,2013-05-02 00:30:00,
2013-05-01 17:35:00,63.1,54.7,30.04,SW,222,7.0,7.0,74,0.00,,,0.00,473,Wunderground v.1.15,2013-05-02 00:35:00,
2013-05-01 17:40:00,63.2,54.4,30.04,SW,226,6.0,7.0,73,0.00,,,0.00,455,Wunderground v.1.15,2013-05-02 00:40:00,
2013-05-01 17:50:00,63.4,54.2,30.05,SW,236,6.0,9.0,72,0.00,,,0.00,420,Wunderground v.1.15,2013-05-02 00:50:00,
2013-05-01 18:00:00,62.9,54.1,30.04,SSW,213,7.0,7.0,73,0.00,,,0.00,385,Wunderground v.1.15,2013-05-02 01:00:00,
2013-05-01 18:05:00,62.7,53.9,30.04,SW,227,7.0,7.0,73,0.00,,,0.00,366,Wunderground v.1.15,2013-05-02 01:05:00,
2013-05-01 18:15:00,62.3,53.5,30.05,SSW,213,7.0,8.0,73,0.00,,,0.00,332,Wunderground v.1.15,2013-05-02 01:15:00,
2013-05-01 18:20:00,62.2,53.4,30.05,SW,232,7.0,7.0,73,0.00,,,0.00,315,Wunderground v.1.15,2013-05-02 01:20:00,
2013-05-01 18:30:00,61.4,53.4,30.05,SW,235,8.0,8.0,75,0.00,,,0.00,276,Wunderground v.1.15,2013-05-02 01:30:00,
2013-05-01 18:35:00,61.1,53.5,30.05,SW,236,8.0,8.0,76,0.00,,,0.00,258,Wunderground v.1.15,2013-05-02 01:35:00,
2013-05-01 18:45:00,61.0,53.4,30.05,SW,232,7.0,9.0,76,0.00,,,0.00,223,Wunderground v.1.15,2013-05-02 01:45:00,
2013-05-01 18:50:00,60.9,53.6,30.05,WSW,245,7.0,7.0,77,0.00,,,0.00,202,Wunderground v.1.15,2013-05-02 01:50:00,
2013-05-01 19:00:00,61.8,53.8,30.05,SW,234,5.0,9.0,75,0.00,,,0.00,160,Wunderground v.1.15,2013-05-02 02:00:00,
2013-05-01 19:10:00,61.4,53.4,30.05,SW,218,6.0,7.0,75,0.00,,,0.00,120,Wunderground v.1.15,2013-05-02 02:10:00,
2013-05-01 19:15:00,60.6,53.0,30.06,SSW,213,7.0,7.0,76,0.00,,,0.00,100,Wunderground v.1.15,2013-05-02 02:15:00,
2013-05-01 19:25:00,60.8,53.2,30.06,SW,233,4.0,6.0,76,0.00,,,0.00,69,Wunderground v.1.15,2013-05-02 02:25:00,
2013-05-01 19:35:00,60.5,52.2,30.06,SSW,213,7.0,8.0,74,0.00,,,0.00,40,Wunderground v.1.15,2013-05-02 02:35:00,
2013-05-01 19:40:00,60.4,52.4,30.07,SSW,213,8.0,8.0,75,0.00,,,0.00,28,Wunderground v.1.15,2013-05-02 02:40:00,
2013-05-01 19:45:00,60.4,52.1,30.07,SSW,213,6.0,8.0,74,0.00,,,0.00,19,Wunderground v.1.15,2013-05-02 02:45:00,
2013-05-01 19:55:00,60.2,52.2,30.07,WSW,251,5.0,6.0,75,0.00,,,0.00,9,Wunderground v.1.15,2013-05-02 02:55:00,
2013-05-01 20:05:00,59.6,52.0,30.08,SW,218,7.0,8.0,76,0.00,,,0.00,0,Wunderground v.1.15,2013-05-02 03:05:00,
2013-05-01 20:15:00,59.1,51.9,30.08,SW,235,6.0,7.0,77,0.00,,,0.00,0,Wunderground v.1.15,2013-05-02 03:15:00,
2013-05-01 20:20:00,59.2,52.3,30.08,WSW,237,5.0,5.0,78,0.00,,,0.00,0,Wunderground v.1.15,2013-05-02 03:20:00,
2013-05-01 20:25:00,59.2,51.6,30.08,SW,231,4.0,5.0,76,0.00,,,0.00,0,Wunderground v.1.15,2013-05-02 03:25:00,
2013-05-01 20:35:00,59.7,52.1,30.08,SW,222,3.0,4.0,76,0.00,,,0.00,0,Wunderground v.1.15,2013-05-02 03:35:00,
2013-05-01 20:40:00,59.5,51.6,30.08,SW,218,3.0,3.0,75,0.00,,,0.00,0,Wunderground v.1.15,2013-05-02 03:40:00,
2013-05-01 20:50:00,59.9,51.6,30.09,SW,222,3.0,4.0,74,0.00,,,0.00,0,Wunderground v.1.15,2013-05-02 03:50:00,
2013-05-01 20:55:00,59.8,52.2,30.09,SSW,204,3.0,4.0,76,0.00,,,0.00,0,Wunderground v.1.15,2013-05-02 03:55:00,
2013-05-01 21:05:00,59.9,51.6,30.09,SSW,195,3.0,4.0,74,0.00,,,0.00,0,Wunderground v.1.15,2013-05-02 04:05:00,
2013-05-01 21:10:00,59.8,51.5,30.10,SSW,196,3.0,3.0,74,0.00,,,0.00,0,Wunderground v.1.15,2013-05-02 04:10:00,
2013-05-01 21:15:00,59.7,51.8,30.10,SSW,196,3.0,3.0,75,0.00,,,0.00,0,Wunderground v.1.15,2013-05-02 04:15:00,
2013-05-01 21:20:00,59.5,51.6,30.10,SSW,196,3.0,3.0,75,0.00,,,0.00,0,Wunderground v.1.15,2013-05-02 04:20:00,
2013-05-01 21:25:00,59.4,51.5,30.10,SSW,197,3.0,3.0,75,0.00,,,0.00,0,Wunderground v.1.15,2013-05-02 04:25:00,
2013-05-01 21:30:00,59.3,51.4,30.10,SSW,197,3.0,3.0,75,0.00,,,0.00,0,Wunderground v.1.15,2013-05-02 04:30:00,
2013-05-01 21:35:00,59.1,51.2,30.10,SSW,198,4.0,4.0,75,0.00,,,0.00,0,Wunderground v.1.15,2013-05-02 04:35:00,
2013-05-01 21:40:00,59.1,51.9,30.11,SSW,199,3.0,3.0,77,0.00,,,0.00,0,Wunderground v.1.15,2013-05-02 04:40:00,
2013-05-01 21:50:00,59.3,52.1,30.11,SSW,201,4.0,4.0,77,0.00,,,0.00,0,Wunderground v.1.15,2013-05-02 04:50:00,
2013-05-01 22:00:00,58.9,52.1,30.11,SSW,208,3.0,4.0,78,0.00,,,0.00,0,Wunderground v.1.15,2013-05-02 05:00:00,
2013-05-01 22:05:00,58.7,51.5,30.11,SSW,208,3.0,4.0,77,0.00,,,0.00,0,Wunderground v.1.15,2013-05-02 05:05:00,
2013-05-01 22:15:00,58.5,51.3,30.11,SSW,204,3.0,3.0,77,0.00,,,0.00,0,Wunderground v.1.15,2013-05-02 05:15:00,
2013-05-01 22:20:00,58.6,51.4,30.11,SSW,208,2.0,2.0,77,0.00,,,0.00,0,Wunderground v.1.15,2013-05-02 05:20:00,
2013-05-01 22:25:00,59.1,52.2,30.11,SSW,203,3.0,3.0,78,0.00,,,0.00,0,Wunderground v.1.15,2013-05-02 05:25:00,
2013-05-01 22:35:00,59.1,51.9,30.11,SSW,203,3.0,4.0,77,0.00,,,0.00,0,Wunderground v.1.15,2013-05-02 05:35:00,
2013-05-01 22:45:00,59.1,51.9,30.11,SSW,197,5.0,5.0,77,0.00,,,0.00,0,Wunderground v.1.15,2013-05-02 05:45:00,
2013-05-01 22:50:00,59.1,51.9,30.11,South,180,5.0,6.0,77,0.00,,,0.00,0,Wunderground v.1.15,2013-05-02 05:50:00,
2013-05-01 23:00:00,59.3,52.4,30.11,South,182,4.0,4.0,78,0.00,,,0.00,0,Wunderground v.1.15,2013-05-02 06:00:00,
2013-05-01 23:10:00,58.9,52.1,30.11,South,180,3.0,3.0,78,0.00,,,0.00,0,Wunderground v.1.15,2013-05-02 06:10:00,
2013-05-01 23:20:00,58.7,51.5,30.11,South,180,3.0,3.0,77,0.00,,,0.00,0,Wunderground v.1.15,2013-05-02 06:20:00,
2013-05-01 23:30:00,58.9,52.1,30.11,South,181,3.0,4.0,78,0.00,,,0.00,0,Wunderground v.1.15,2013-05-02 06:30:00,
2013-05-01 23:35:00,58.7,51.5,30.11,South,182,4.0,4.0,77,0.00,,,0.00,0,Wunderground v.1.15,2013-05-02 06:35:00,
2013-05-01 23:45:00,58.7,52.2,30.12,SW,218,5.0,6.0,79,0.00,,,0.00,0,Wunderground v.1.15,2013-05-02 06:45:00,
2013-05-01 23:50:00,58.4,52.6,30.12,SW,231,5.0,5.0,81,0.00,,,0.00,0,Wunderground v.1.15,2013-05-02 06:50:00,